Location: Bretagne
(43.8474°N, 0.4650°W)
Time: 08:56:11
(UTC+00:00)

Cosmos 1302 Rocket - Pass Details

Date: 15 January 2026
Orbit: 752 x 772 km, 74.0° (Epoch: 18 February)

Event Time Altitude Azimuth Distance (km) Brightness Sun altitude
Rises 18:39:51 0° 197° (SSW) 3,216 7.6 -19.4°
Reaches altitude 10° 18:42:12 10° 197° (SSW) 2,297 6.8 -19.8°
Maximum altitude 18:47:26 87° 109° (ESE) 776 3.9 -20.7°
Enters shadow 18:50:39 24° 22° (NNE) 1,550 5.3 -21.3°
